Location: *
(48.8667°N, 2.3331°E)
Time: 10:50:56
(UTC+00:00)

N. Korean satellite - Visible Passes

Search period start: 27 February 2021 00:00
Search period end: 09 March 2021 00:00
Orbit: 451 x 503 km, 97.2° (Epoch: 26 February)

Date Brightness Start Highest point End Pass type
(mag) Time Alt. Az. Time Alt. Az. Time Alt. Az.
27 Feb 10.1 04:07:46 10° E 04:08:20 10° E 04:08:53 10° E visible
27 Feb 6.4 05:38:34 10° N 05:42:02 64° WNW 05:45:31 10° SSW visible
28 Feb 7.1 05:11:50 10° NNE 05:15:18 58° ESE 05:18:48 10° S visible
01 Mar 8.7 04:45:24 10° NE 04:48:29 28° E 04:51:34 10° SSE visible
02 Mar 9.7 04:19:29 10° NE 04:21:33 15° E 04:23:37 10° SE visible
02 Mar 6.8 05:51:43 10° N 05:55:05 44° WNW 05:58:29 10° SW visible
03 Mar 6.5 05:24:51 10° NNE 05:28:23 86° ESE 05:31:58 10° SSW visible
04 Mar 8.0 04:58:14 10° NNE 05:01:35 40° E 05:04:59 10° S visible
05 Mar 9.3 04:31:58 10° NE 04:34:42 20° E 04:37:26 10° SE visible
06 Mar 10.1 04:06:54 10° ENE 04:07:42 11° E 04:08:30 10° E visible
06 Mar 6.5 05:37:52 10° N 05:41:24 65° WNW 05:44:57 10° SSW visible
07 Mar 7.2 05:11:07 10° NNE 05:14:38 58° E 05:18:12 10° S visible
08 Mar 8.8 04:44:37 10° NE 04:47:47 28° E 04:50:56 10° SSE visible
